#timestamp,LO_Frequency,Hit 
1497340815.7,286047006.2,N
1497340835.5,286047006.5,N
1497340855.4,286047014.0,N
1497340875.2,286047012.3,N
1497340895.0,286047012.3,N
1497340896.0,286047012.3,N
1497340915.8,286047009.7,N
1497340935.6,286047009.8,N
1497340955.5,286047012.4,N
1497340975.3,286047009.9,N
1497340995.1,286047011.9,N
1497341015.9,286047011.9,N
1497341035.7,286047010.3,N
1497341055.6,286047008.3,N
1497341075.4,286047006.2,N
1497341095.2,286047006.4,N
1497341115.1,286047008.2,N
1497341116.0,286047008.2,N
1497341135.8,286047010.3,N
1497341155.6,286047010.4,N
1497341175.5,286047008.1,N
1497341195.3,286047007.8,N
1497341215.2,286047010.7,N
1497341235.9,286047007.7,N
1497341255.7,286047006.5,N
1497341275.6,286047006.2,N
1497341295.4,286047006.5,N
1497341315.2,286047006.9,N
1497341335.1,286047007.6,N
1497341336.0,286047007.6,N
1497341355.8,286047007.4,N
1497341375.7,286047005.9,N
1497341395.5,286047007.6,N
1497341415.3,286047006.5,N
1497341435.2,286047007.0,N
1497341455.9,286047006.2,N
1497341475.7,286047007.2,N
1497341495.6,286047005.1,N
1497341515.4,286047003.8,N
1497341535.2,286047003.5,N
1497341555.1,286047003.4,N
1497341556.0,286047003.4,N
1497341575.8,286047001.3,N
1497341595.7,286047003.2,N
1497341615.5,286047004.3,N
1497341635.3,286047005.6,N
1497341655.2,286047005.7,N
1497341675.0,286047004.1,N
1497341675.9,286047004.1,N
1497341695.7,286047004.3,N
1497341715.6,286047004.2,N
1497341735.4,286047003.1,N
1497341755.3,286047003.6,N
1497341775.1,286047003.5,N
1497341776.0,286047003.5,N
1497341795.8,286047004.4,N
1497341815.7,286047005.7,N
1497341835.5,286047004.2,N
1497341855.3,286047001.3,N
1497341875.2,286047006.0,N
1497341895.0,286047003.9,N
1497341895.9,286047003.9,N
1497341915.8,286047005.7,N
1497341935.6,286047005.7,N
1497341955.4,286047003.0,N
1497341975.3,286047004.2,N
1497341995.1,286047002.2,N
1497342015.8,286047002.6,N
1497342035.7,286047003.7,N
1497342055.5,286047003.1,N
1497342075.4,286047003.9,N
1497342095.2,286047004.8,N
1497342115.0,286047003.8,N
1497342115.9,286047003.8,N
1497342135.8,286047003.0,N
1497342155.6,286047003.4,N
1497342175.4,286047005.5,N
1497342195.3,286047003.5,N
1497342215.1,286047002.2,N
1497342235.9,286047003.6,N
1497342255.7,286047005.9,N
1497342275.5,286047001.9,N
1497342295.4,286047001.3,N
1497342315.2,286047011.9,N
1497342335.0,286046998.1,N
1497342335.9,286046998.1,N
1497342355.8,286046998.5,N
1497342375.6,286047000.8,N
1497342395.5,286047000.0,N
1497342415.3,286047000.4,N
1497342435.1,286047002.6,N
1497342455.9,286046999.9,N
1497342475.7,286046998.2,N
1497342495.5,286047000.2,N
1497342515.4,286047001.5,N
1497342535.2,286047002.5,N
1497342555.0,286047004.0,N
1497342555.9,286047004.0,N
1497342575.8,286047003.6,N
1497342595.6,286047005.7,N
1497342615.5,286047003.5,N
1497342635.3,286047003.4,N
1497342655.1,286047005.8,N
1497342675.9,286047007.1,N
1497342695.7,286047006.9,N
1497342715.5,286047006.6,N
1497342735.4,286047005.4,N
1497342755.2,286047004.6,N
1497342775.1,286047006.9,N
1497342776.0,286047006.9,N
1497342795.8,286047009.0,N
1497342815.6,286047009.1,N
1497342835.5,286047004.9,N
1497342855.3,286047003.5,N
1497342875.1,286047003.6,N
1497342895.9,286047003.6,N
1497342915.7,286047005.8,N
1497342935.6,286047004.7,N
1497342955.4,286047006.7,N
1497342975.2,286047004.8,N
1497342995.1,286047006.4,N
1497342996.0,286047006.4,N
1497343015.8,286047004.7,N
1497343035.6,286047005.4,N
1497343055.5,286047001.6,N
1497343075.3,286047001.6,N
1497343095.2,286047001.6,N
1497343115.9,286047001.3,N
1497343135.7,286047004.0,N
1497343155.6,286047004.4,N
1497343175.4,286047001.9,N
1497343195.2,286046999.7,N
1497343215.1,286047001.1,N
1497343216.0,286047001.1,N
1497343235.8,286047001.0,N
1497343255.7,286047000.6,N
1497343275.5,286046998.6,N
1497343295.3,286046996.6,N
1497343315.2,286046996.8,N
1497343335.0,286046997.0,N
1497343335.9,286046997.0,N
1497343355.7,286046999.4,N
1497343375.6,286046999.2,N
1497343395.4,286046997.6,N
1497343415.3,286046997.1,N
1497343435.1,286046997.6,N
1497343436.0,286046997.6,N
1497343455.8,286046995.5,N
1497343475.7,286046996.2,N
1497343495.5,286046995.2,N
1497343515.4,286046995.2,N
1497343535.2,286046996.2,N
1497343555.0,286046995.7,N
1497343555.9,286046995.7,N
1497343575.8,286046997.6,N
1497343595.6,286046995.9,N
1497343615.4,286046996.2,N
1497343635.3,286046996.4,N
1497343655.1,286046995.6,N
1497343675.9,286046993.7,N
1497343695.7,286046993.8,N
1497343715.5,286046996.4,N
1497343735.4,286046995.2,N
1497343755.2,286046995.2,N
1497343775.0,286046995.6,N
1497343775.9,286046995.6,N
1497343795.8,286046995.7,N
1497343815.6,286046993.5,N
1497343835.5,286046996.4,N
1497343855.3,286046995.5,N
1497343875.1,286046996.3,N
1497343895.9,286046993.7,N
1497343915.7,286046993.6,N
1497343935.5,286046994.1,N
1497343955.4,286046993.9,N
1497343975.2,286046993.6,N
1497343995.1,286046994.2,N
1497343996.0,286046994.2,N
1497344015.8,286046995.9,N
1497344035.6,286046993.3,N
1497344055.5,286046994.3,N
1497344075.3,286046986.3,N
1497344095.1,286046994.5,N
1497344115.9,286046995.9,N
1497344135.7,286046996.2,N
1497344155.6,286046995.9,N
1497344175.4,286046995.9,N
1497344195.2,286046994.5,N
1497344215.1,286046992.1,N
1497344216.0,286046992.1,N
1497344235.8,286046994.1,N
1497344255.6,286046994.5,N
1497344275.5,286046996.0,N
1497344295.3,286046993.5,N
1497344315.2,286046994.8,N
1497344335.9,286046994.6,N
1497344355.7,286046991.8,N
1497344375.6,286046993.3,N
1497344395.4,286046996.3,N
